Location: Blackwall
(51.5097°N, 0.0016°W)
Time: 01:04:42
(UTC+00:00)

ISS - Pass Details

Date: 15 May 2026
Orbit: 413 x 422 km, 51.6° (Epoch: 9 June)

Event Time Altitude Azimuth Distance (km) Brightness Sun altitude
Rises 21:20:42 0° 274° (W) 2,350 0.7 -11.7°
Reaches altitude 10° 21:22:48 10° 274° (W) 1,488 -0.4 -11.9°
Maximum altitude 21:26:08 87° 2° (N) 420 -3.8 -12.2°
Enters shadow 21:29:20 11° 94° (E) 1,423 -1.4 -12.5°
